Home   Weather   Indre Arna   Past weeks

Flag for Norway Past Weather in Indre Arna, Norway — Yesterday and Last 2 Weeks

Now
45 °F

Quite cool.


Feels Like: 43 °F
Forecast: 31 / 38 °F
Wind: 3 mph from Northwest

Location: Bergen / Florida

Current Time: Dec 5, 2016 at 5:37:22 pm

Latest Report: Dec 5, 2016 at 3:00 pm


Visibility: N/A

Pressure: 30.16 "Hg

Humidity: 88%

Dew Point: 42 °F

Location of Indre ArnaLocation

Past Weather in Indre Arna — Graph

°F

Indre Arna Temperature Yesterday

Maximum temperature yesterday: 47 °F (at 12:00 pm)
Minimum temperature yesterday: 42 °F (at 12:00 am)
Average temperature yesterday: 45 °F

High & Low Weather Summary for the Past Weeks

 TemperatureHumidityPressure
High50 °F (Nov 26, 12:00 am)90% (Nov 22, 2:00 am)30.53 "Hg (Nov 22, 2:00 am)
Low28 °F (Nov 28, 5:00 am)54% (Nov 20, 5:00 pm)29.35 "Hg (Nov 20, 8:00 pm)
Average41 °F82%30.05 "Hg
* Reported Nov 20 3:00 pm — Dec 5 3:00 pm, Indre Arna, Weather by CustomWeather, © 2016

Note: Actual official high and low records may vary slightly from our data, if they occured in-between our weather recording intervals... More about our weather records

Advertising

Indre Arna Weather History for the Previous 24 Hours

Scroll right to see more
 ConditionsComfort  
Time TempWeatherWind HumidityBarometerVisibility
3:00 pm
Mon, Dec 5
45 °FQuite cool.3 mph88%30.16 "HgN/A
2:00 pm46 °FCool.3 mph88%30.15 "HgN/A
1:00 pm44 °FRain. Low clouds.2 mph87%30.16 "Hg6 mi
12:00 pm44 °FQuite cool.1 mph86%30.17 "HgN/A
11:00 am44 °FQuite cool.2 mph84%30.18 "HgN/A
10:00 am44 °FOvercast.2 mph82%30.17 "Hg17 mi
9:00 am44 °FQuite cool.1 mph81%30.18 "HgN/A
8:00 am45 °FCool.2 mph81%30.18 "HgN/A
3:00 am44 °FQuite cool.2 mph85%30.22 "HgN/A
2:00 am44 °FQuite cool.2 mph83%30.22 "HgN/A
1:00 am45 °FQuite cool.1 mph82%30.24 "HgN/A
12:00 am46 °FCool.5 mph84%30.25 "HgN/A
11:00 pm
Sun, Dec 4
45 °FCool.1 mph85%30.26 "HgN/A
10:00 pm46 °FOvercast.5 mph83%30.26 "Hg16 mi
9:00 pm47 °FCool.3 mph85%30.26 "HgN/A
8:00 pm46 °FCool.1 mph85%30.26 "HgN/A
7:00 pm47 °FLight rain. Low clouds.3 mph83%30.26 "Hg6 mi
6:00 pm47 °FCool.3 mph83%30.26 "HgN/A
5:00 pm47 °FCool.5 mph84%30.26 "HgN/A
Weather by CustomWeather, © 2016

See weather overviewHow to use our weather pages